EW7639 Hope Valley RI US current weather conditions

sailwx.info

Wind from 170

Air temperature 21.7° C
Dewpoint 21.2° C

Last reported at 2020-Jul-08 13:00 UTC.
Time now 2020-Jul-08 14:13 UTC

Location: N 41°31' W 071°42'.
View on Google Maps.

See reports from other nearby stations

  
Tides and Currents Weather Stations Pressure Air Temp Water Temp Dewpoint Dewpoint Depression Visibility Wind Speed Wind Dir Waves Ship Positions
date/time (UTC)wind fromknots sea level pressurealtimeterstation pressurevisibilityair tempwater tempwave heightnotes
2020-Jul-08 13:00 170 21.7
2020-Jul-08 12:45 157 21.7
2020-Jul-08 12:31 157 21.7
2020-Jul-08 12:15 157 0 gusting 3 21.7
2020-Jul-08 12:01 163 21.7
2020-Jul-08 11:45 166 21.1
2020-Jul-08 11:30 166 21.1
2020-Jul-08 11:16 178 21.1
2020-Jul-08 11:01 159 21.1
2020-Jul-08 10:45 173 21.1
2020-Jul-08 10:30 153 21.1
2020-Jul-08 10:15 162 20.6
2020-Jul-08 10:00 162 20.6
2020-Jul-08 09:46 166 20.6
2020-Jul-08 09:30 153 20.6
2020-Jul-08 09:15 146 20.6
2020-Jul-08 09:01 166 20.6
2020-Jul-08 08:45 169 20.0
2020-Jul-08 08:30 165 20.0
2020-Jul-08 08:16 169 20.0
2020-Jul-08 08:01 170 20.0
2020-Jul-08 07:45 169 20.0
2020-Jul-08 07:30 168 20.0
2020-Jul-08 07:15 168 19.4
2020-Jul-08 07:00 168 19.4
2020-Jul-08 06:47 170 19.4
2020-Jul-08 06:33 170 19.4
2020-Jul-08 06:16 170 19.4
2020-Jul-08 06:00 170 19.4
2020-Jul-08 05:46 170 19.4
2020-Jul-08 05:32 170 19.4
2020-Jul-08 05:16 170 19.4
2020-Jul-08 05:01 170 18.9
2020-Jul-08 04:46 170 18.9
2020-Jul-08 04:30 191 18.9
2020-Jul-08 04:15 191 18.9
2020-Jul-08 04:01 191 18.9
2020-Jul-08 03:45 191 18.9
2020-Jul-08 03:31 132 18.3
2020-Jul-08 03:16 132 18.3
2020-Jul-08 03:00 148 18.3
2020-Jul-08 02:45 113 18.3
2020-Jul-08 02:31 161 18.3
2020-Jul-08 02:00 125 18.3
2020-Jul-08 01:45 105 0 gusting 2 18.3
2020-Jul-08 01:30 148 18.3
2020-Jul-08 01:01 095 0 gusting 4 18.3
2020-Jul-08 00:45 154 18.3
2020-Jul-08 00:30 104 18.3
2020-Jul-08 00:01 128 0 gusting 5 18.9
2020-Jul-07 23:46 086 0 gusting 4 18.9
2020-Jul-07 23:30 130 18.9
2020-Jul-07 23:15 126 18.9
2020-Jul-07 23:02 157 18.9
2020-Jul-07 22:46 113 0 gusting 5 18.9
2020-Jul-07 22:31 082 19.4
2020-Jul-07 22:16 135 1 gusting 5 19.4
2020-Jul-07 22:00 148 20.0
2020-Jul-07 21:46 152 0 gusting 5 20.0
2020-Jul-07 21:31 165 0 gusting 4 20.6
2020-Jul-07 21:16 140 0 gusting 4 21.1
2020-Jul-07 21:02 153 21.1
2020-Jul-07 20:45 168 21.1
2020-Jul-07 20:30 133 1 gusting 5 21.1
2020-Jul-07 17:00 159 0 gusting 7 22.8
2020-Jul-07 16:45 098 2 gusting 6 23.3
2020-Jul-07 16:31 184 1 gusting 6 24.4
2020-Jul-07 16:17 117 1 gusting 7 23.9
2020-Jul-07 16:00 086 0 gusting 7 23.3
2020-Jul-07 13:16 101 0 gusting 4 20.6
2020-Jul-07 13:01 071 1 gusting 6 20.0
2020-Jul-07 12:45 153 0 gusting 4 20.0
2020-Jul-07 12:30 166 20.0
2020-Jul-07 12:15 124 0 gusting 4 20.0
2020-Jul-07 12:00 137 1 gusting 5 18.9
2020-Jul-07 11:45 080 2 gusting 6 18.3
2020-Jul-07 11:30 140 0 gusting 6 18.3
2020-Jul-07 11:15 142 0 gusting 3 17.8
2020-Jul-07 11:03 102 17.8
2020-Jul-07 10:46 134 17.8
2020-Jul-07 10:30 153 0 gusting 3 17.8
2020-Jul-07 10:16 113 0 gusting 2 17.2
2020-Jul-07 10:01 178 0 gusting 2 17.2
2020-Jul-07 09:46 182 0 gusting 2 17.2
2020-Jul-07 09:30 096 17.2
2020-Jul-07 09:15 245 17.2
2020-Jul-07 09:00 094 17.2
2020-Jul-07 08:45 126 17.2
2020-Jul-07 08:31 126 17.2
2020-Jul-07 08:15 126 17.2
2020-Jul-07 08:00 113 17.8
2020-Jul-07 07:45 196 17.8
2020-Jul-07 07:31 169 17.8
2020-Jul-07 07:17 157 0 gusting 4 17.8
2020-Jul-07 07:01 106 17.8
2020-Jul-07 06:45 159 17.8
2020-Jul-07 06:30 130 17.8
2020-Jul-07 06:15 164 18.3
2020-Jul-07 06:01 172 18.3
2020-Jul-07 05:48 163 18.3
2020-Jul-07 05:31 123 0 gusting 2 18.3
2020-Jul-07 05:15 146 18.3
2020-Jul-07 05:00 127 18.3
2020-Jul-07 04:45 127 0 gusting 3 18.3
2020-Jul-07 04:30 177 0 gusting 3 18.9
2020-Jul-07 04:15 163 0 gusting 6 18.9
2020-Jul-07 04:00 171 0 gusting 3 18.9
2020-Jul-07 03:46 174 18.9
2020-Jul-07 03:31 140 0 gusting 6 18.9
2020-Jul-07 03:17 122 1 gusting 5 18.9
2020-Jul-07 03:01 143 19.4
2020-Jul-07 02:46 169 19.4
2020-Jul-07 02:31 140 19.4
2020-Jul-07 02:15 097 20.0
2020-Jul-07 02:01 148 20.0
2020-Jul-07 01:47 144 20.0
2020-Jul-07 01:31 147 0 gusting 2 20.6
2020-Jul-07 01:17 105 20.6
2020-Jul-07 01:01 113 20.6
2020-Jul-07 00:45 126 20.6
2020-Jul-07 00:30 110 0 gusting 3 20.6
2020-Jul-07 00:16 063 0 gusting 4 21.1
2020-Jul-07 00:01 153 21.1
2020-Jul-06 23:45 137 21.7
2020-Jul-06 23:30 138 0 gusting 3 21.7
2020-Jul-06 23:15 131 1 gusting 4 22.2
2020-Jul-06 23:00 163 0 gusting 4 22.2
2020-Jul-06 22:46 152 2 gusting 5 22.8
2020-Jul-06 22:31 121 1 gusting 6 23.3
2020-Jul-06 22:15 154 1 gusting 5 23.3
2020-Jul-06 22:00 173 2 gusting 6 24.4
2020-Jul-06 21:30 110 2 gusting 7 25.0
2020-Jul-06 21:16 030 0 gusting 7 25.0
2020-Jul-06 21:01 067 0 gusting 6 25.6
2020-Jul-06 20:46 101 1 gusting 9 25.6
2020-Jul-06 20:31 028 2 gusting 7 25.6
2020-Jul-06 20:15 336 2 gusting 6 25.6
2020-Jul-06 20:00 074 3 gusting 9 25.6
2020-Jul-06 19:45 137 3 gusting 7 26.1
2020-Jul-06 19:30 055 2 gusting 6 25.6
2020-Jul-06 19:16 080 5 gusting 9 26.1
2020-Jul-06 19:01 102 0 gusting 8 26.1
2020-Jul-06 18:46 017 2 gusting 9 26.1
2020-Jul-06 18:31 067 2 gusting 7 26.1
2020-Jul-06 18:15 059 3 gusting 9 26.1
2020-Jul-06 18:00 022 3 gusting 9 26.1
2020-Jul-06 17:46 074 3 gusting 8 26.7
2020-Jul-06 17:31 061 3 gusting 10 26.1
2020-Jul-06 17:15 078 4 gusting 7 26.7
2020-Jul-06 17:00 043 4 gusting 7 26.7
2020-Jul-06 16:45 042 2 gusting 6 27.2
2020-Jul-06 16:30 335 3 gusting 7 26.7
2020-Jul-06 16:16 351 2 gusting 7 26.7
2020-Jul-06 16:02 017 2 gusting 6 26.7
2020-Jul-06 15:45 127 2 gusting 6 26.7
2020-Jul-06 15:31 064 3 gusting 7 26.1
2020-Jul-06 15:15 350 0 gusting 8 26.7
2020-Jul-06 15:00 054 1 gusting 5 26.7
2020-Jul-06 14:45 024 1 gusting 6 26.7
2020-Jul-06 14:30 107 0 gusting 6 26.7
2020-Jul-06 14:15 013 2 gusting 6 26.7
2020-Jul-06 14:00 036 0 gusting 5 26.7